CW3643 Lisbon PT current weather conditions

sailwx.info

Wind from 236

Air temperature 10.0° C
Dewpoint 8.9° C

Last reported at 2020-Jan-26 07:00 UTC.
Time now 2020-Jan-26 07:52 UTC

Location: N 38°47' W 009°07'.
View on Google Maps.

See reports from other nearby stations

  
Tides and Currents Weather Stations Pressure Air Temp Water Temp Dewpoint Dewpoint Depression Visibility Wind Speed Wind Dir Waves Ship Positions
date/time (UTC)wind fromknots sea level pressurealtimeterstation pressurevisibilityair tempwater tempwave heightnotes
2020-Jan-26 07:00 236 10.0
2020-Jan-26 06:45 236 10.0
2020-Jan-26 06:40 236 10.0
2020-Jan-26 06:35 236 10.0
2020-Jan-26 06:25 236 10.0
2020-Jan-26 06:20 236 10.0
2020-Jan-26 06:15 236 10.0
2020-Jan-26 06:10 236 10.0
2020-Jan-26 06:05 236 10.0
2020-Jan-26 06:00 236 10.0
2020-Jan-26 05:55 236 10.0
2020-Jan-26 05:50 236 10.0
2020-Jan-26 05:45 236 10.0
2020-Jan-26 05:40 236 0 gusting 2 10.0
2020-Jan-26 05:35 236 0 gusting 3 10.0
2020-Jan-26 05:30 236 1 gusting 3 10.0
2020-Jan-26 05:25 236 0 gusting 2 10.0
2020-Jan-26 05:20 236 0 gusting 2 10.0
2020-Jan-26 05:15 254 10.0
2020-Jan-26 05:10 266 10.0
2020-Jan-26 05:06 266 10.0
2020-Jan-26 05:00 266 10.0
2020-Jan-26 04:55 266 10.0
2020-Jan-26 04:50 266 10.0
2020-Jan-26 04:40 266 10.0
2020-Jan-26 04:35 280 10.0
2020-Jan-26 04:30 256 10.0
2020-Jan-26 04:25 256 0 gusting 1 10.0
2020-Jan-26 04:20 256 0 gusting 1 10.0
2020-Jan-26 04:15 256 10.0
2020-Jan-26 04:05 256 0 gusting 2 10.0
2020-Jan-26 04:00 256 0 gusting 2 10.0
2020-Jan-26 03:45 256 0 gusting 1 10.6
2020-Jan-26 03:40 256 10.6
2020-Jan-26 03:30 256 10.6
2020-Jan-26 03:25 256 11.1
2020-Jan-26 03:20 256 1 gusting 4 11.1
2020-Jan-26 03:15 256 2 gusting 4 11.1
2020-Jan-26 03:10 270 1 gusting 4 10.6
2020-Jan-26 03:00 276 3 gusting 5 10.6
2020-Jan-26 02:55 261 3 gusting 5 10.6
2020-Jan-26 02:50 278 2 gusting 4 10.6
2020-Jan-26 02:40 278 2 gusting 5 10.6
2020-Jan-26 02:30 278 2 gusting 4 11.1
2020-Jan-26 02:20 276 3 gusting 5 10.6
2020-Jan-26 02:15 279 3 gusting 5 10.6
2020-Jan-26 02:05 284 2 gusting 5 10.6
2020-Jan-26 02:01 284 3 gusting 5 10.6
2020-Jan-26 01:55 278 2 gusting 4 10.6
2020-Jan-26 01:50 270 2 gusting 4 10.6
2020-Jan-26 01:45 266 2 gusting 3 10.6
2020-Jan-26 01:40 265 2 gusting 3 10.6
2020-Jan-26 01:35 265 1 gusting 2 11.1
2020-Jan-26 01:30 265 1 gusting 3 11.1
2020-Jan-26 01:20 265 1 gusting 2 11.1
2020-Jan-26 01:15 265 0 gusting 2 11.1
2020-Jan-26 01:10 265 0 gusting 2 11.1
2020-Jan-26 01:00 265 1 gusting 3 11.1
2020-Jan-26 00:55 265 1 gusting 3 11.1
2020-Jan-26 00:50 265 2 gusting 3 11.1
2020-Jan-26 00:45 265 1 gusting 3 11.1
2020-Jan-26 00:40 265 0 gusting 2 11.1
2020-Jan-26 00:35 265 0 gusting 2 11.1
2020-Jan-26 00:30 266 1 gusting 2 11.7
2020-Jan-26 00:20 268 1 gusting 3 11.7
2020-Jan-26 00:15 268 1 gusting 3 11.7
2020-Jan-26 00:10 268 2 gusting 2 11.7
2020-Jan-26 00:05 268 0 gusting 2 11.7
2020-Jan-26 00:00 268 0 gusting 2 11.7
2020-Jan-25 23:45 249 2 gusting 4 11.1
2020-Jan-25 23:40 252 2 gusting 6 11.1
2020-Jan-25 23:35 253 3 gusting 6 11.1
2020-Jan-25 23:30 271 2 gusting 4 11.1
2020-Jan-25 23:25 307 0 gusting 2 11.1
2020-Jan-25 23:20 307 11.1
2020-Jan-25 23:16 307 1 gusting 3 11.1
2020-Jan-25 23:10 309 2 gusting 3 11.1
2020-Jan-25 23:05 272 1 gusting 2 11.1
2020-Jan-25 23:00 272 1 gusting 2 11.1
2020-Jan-25 22:55 272 1 gusting 2 11.1
2020-Jan-25 22:50 272 1 gusting 3 11.1
2020-Jan-25 22:45 272 1 gusting 4 11.1
2020-Jan-25 22:40 285 1 gusting 2 11.7
2020-Jan-25 22:30 284 2 gusting 4 11.7
2020-Jan-25 22:20 298 3 gusting 4 11.7
2020-Jan-25 22:15 288 2 gusting 3 11.7
2020-Jan-25 22:05 306 3 gusting 5 11.7
2020-Jan-25 22:00 316 2 gusting 5 11.7
2020-Jan-25 21:55 278 3 gusting 6 11.7
2020-Jan-25 21:50 301 3 gusting 6 11.7
2020-Jan-25 21:45 284 4 gusting 6 11.7
2020-Jan-25 21:40 297 3 gusting 6 11.7
2020-Jan-25 21:35 299 3 gusting 7 11.7
2020-Jan-25 21:30 309 4 gusting 8 11.7
2020-Jan-25 21:20 313 6 gusting 9 11.7
2020-Jan-25 21:10 304 6 gusting 8 11.7
2020-Jan-25 21:05 313 6 gusting 9 11.7
2020-Jan-25 21:00 337 6 gusting 9 11.7
2020-Jan-25 20:55 290 6 gusting 9 11.7
2020-Jan-25 20:50 324 6 gusting 9 11.7
2020-Jan-25 20:45 318 6 gusting 9 11.7
2020-Jan-25 20:35 318 6 gusting 10 11.7
2020-Jan-25 20:25 322 6 gusting 9 11.7
2020-Jan-25 20:20 311 6 gusting 10 11.7
2020-Jan-25 20:10 320 6 gusting 9 11.7
2020-Jan-25 20:00 316 6 gusting 9 11.7
2020-Jan-25 19:55 294 6 gusting 9 11.7
2020-Jan-25 19:50 312 5 gusting 9 11.7
2020-Jan-25 19:45 322 6 gusting 10 11.7
2020-Jan-25 19:40 318 8 gusting 12 11.7
2020-Jan-25 19:30 330 7 gusting 11 11.7
2020-Jan-25 19:25 317 6 gusting 11 11.7
2020-Jan-25 19:20 318 6 gusting 9 11.7
2020-Jan-25 19:16 320 6 gusting 9 11.7
2020-Jan-25 19:10 310 6 gusting 8 11.7
2020-Jan-25 19:00 311 6 gusting 9 11.7
2020-Jan-25 18:55 308 6 gusting 9 11.7
2020-Jan-25 18:50 303 6 gusting 12 12.2
2020-Jan-25 18:45 328 7 gusting 12 12.2
2020-Jan-25 18:35 329 7 gusting 11 12.2
2020-Jan-25 18:30 323 7 gusting 11 12.2
2020-Jan-25 18:20 333 6 gusting 10 12.2
2020-Jan-25 18:15 320 7 gusting 10 12.2
2020-Jan-25 18:05 320 6 gusting 11 12.8
2020-Jan-25 18:00 290 6 gusting 10 12.8
2020-Jan-25 17:45 327 5 gusting 6 12.8
2020-Jan-25 17:40 314 284 gusting 284 13.3
2020-Jan-25 17:35 331 1 gusting 10 13.3
2020-Jan-25 17:30 335 4 gusting 10 13.3
2020-Jan-25 17:25 344 6 gusting 9 13.3
2020-Jan-25 17:20 336 6 gusting 9 13.3
2020-Jan-25 17:15 321 6 gusting 11 13.3
2020-Jan-25 17:10 353 6 gusting 11 13.3
2020-Jan-25 17:05 330 7 gusting 10 13.3
2020-Jan-25 17:00 348 7 gusting 10 13.9
2020-Jan-25 16:55 330 6 gusting 10 13.9
2020-Jan-25 16:45 311 6 gusting 10 13.9
2020-Jan-25 16:40 337 6 gusting 9 14.4
2020-Jan-25 16:35 342 3 gusting 9 14.4
2020-Jan-25 16:25 360 3 gusting 7 14.4
2020-Jan-25 16:15 357 2 gusting 6 14.4
2020-Jan-25 16:05 279 2 gusting 6 14.4
2020-Jan-25 16:00 332 2 gusting 7 14.4
2020-Jan-25 15:55 012 3 gusting 7 13.9
2020-Jan-25 15:50 008 1 gusting 6 14.4
2020-Jan-25 15:40 003 14.4
2020-Jan-25 15:35 023 0 gusting 2 13.9
2020-Jan-25 15:30 022 13.9
2020-Jan-25 15:25 022 0 gusting 3 13.9
2020-Jan-25 15:20 053 0 gusting 1 14.4
2020-Jan-25 15:10 067 0 gusting 2 14.4
2020-Jan-25 15:05 360 13.9
2020-Jan-25 15:00 012 13.9
2020-Jan-25 14:55 012 0 gusting 2 13.9
2020-Jan-25 14:50 012 0 gusting 2 13.9
2020-Jan-25 14:45 043 13.9
2020-Jan-25 14:40 040 0 gusting 3 13.9
2020-Jan-25 14:35 105 1 gusting 4 13.3
2020-Jan-25 14:25 136 1 gusting 6 13.3
2020-Jan-25 14:20 096 3 gusting 6 13.3
2020-Jan-25 14:15 076 2 gusting 5 13.3
2020-Jan-25 14:10 068 2 gusting 4 13.3
2020-Jan-25 14:05 055 1 gusting 5 13.3
2020-Jan-25 14:00 047 2 gusting 6 13.3
2020-Jan-25 13:50 070 5 gusting 6 13.3
2020-Jan-25 13:45 151 3 gusting 7 13.3
2020-Jan-25 13:40 098 5 gusting 7 13.3
2020-Jan-25 13:30 297 4 gusting 7 13.3
2020-Jan-25 13:25 103 5 gusting 7 13.3
2020-Jan-25 13:20 083 3 gusting 7 13.3
2020-Jan-25 13:15 082 4 gusting 7 12.8
2020-Jan-25 13:10 103 1 gusting 6 12.8
2020-Jan-25 13:05 247 3 gusting 6 12.8
2020-Jan-25 13:00 050 2 gusting 6 12.8
2020-Jan-25 12:55 054 3 gusting 7 12.8
2020-Jan-25 12:50 074 5 gusting 7 12.2
2020-Jan-25 12:45 341 2 gusting 6 12.2
2020-Jan-25 12:40 026 4 gusting 6 12.2
2020-Jan-25 12:30 315 2 gusting 6 11.7
2020-Jan-25 12:25 347 1 gusting 7 11.7
2020-Jan-25 12:20 073 3 gusting 7 11.7
2020-Jan-25 12:15 336 3 gusting 6 11.7
2020-Jan-25 12:05 081 1 gusting 6 11.7
2020-Jan-25 11:45 105 5 gusting 9 11.1
2020-Jan-25 11:40 092 5 gusting 9 11.1
2020-Jan-25 11:35 336 4 gusting 7 11.1
2020-Jan-25 11:25 020 2 gusting 6 10.6
2020-Jan-25 11:20 011 2 gusting 6 10.6
2020-Jan-25 11:15 035 3 gusting 7 10.6
2020-Jan-25 11:10 011 4 gusting 7 10.6
2020-Jan-25 11:05 006 2 gusting 10 10.6
2020-Jan-25 10:55 059 6 gusting 12 10.0
2020-Jan-25 10:50 076 6 gusting 11 10.0
2020-Jan-25 10:45 057 6 gusting 10 10.0
2020-Jan-25 10:40 049 4 gusting 8 10.0
2020-Jan-25 10:35 053 5 gusting 8 10.0
2020-Jan-25 10:30 060 3 gusting 9 10.0
2020-Jan-25 10:25 068 6 gusting 9 10.0
2020-Jan-25 10:21 032 3 gusting 8 10.0
2020-Jan-25 10:15 032 5 gusting 9 10.0
2020-Jan-25 10:10 085 1 gusting 7 10.0
2020-Jan-25 10:00 072 4 gusting 8 10.0
2020-Jan-25 09:55 049 4 gusting 8 10.0
2020-Jan-25 09:50 035 2 gusting 7 9.4
2020-Jan-25 09:45 016 3 gusting 7 9.4
2020-Jan-25 09:40 069 3 gusting 7 9.4
2020-Jan-25 09:35 074 1 gusting 6 10.0
2020-Jan-25 09:25 019 2 gusting 6 9.4
2020-Jan-25 09:20 010 2 gusting 6 9.4
2020-Jan-25 09:15 024 4 gusting 6 9.4
2020-Jan-25 09:10 071 3 gusting 6 9.4
2020-Jan-25 09:05 356 1 gusting 5 9.4
2020-Jan-25 09:00 015 1 gusting 6 9.4
2020-Jan-25 08:55 025 3 gusting 6 9.4
2020-Jan-25 08:50 060 3 gusting 6 9.4
2020-Jan-25 08:45 023 2 gusting 5 9.4
2020-Jan-25 08:35 034 2 gusting 6 9.4
2020-Jan-25 08:30 034 1 gusting 6 9.4
2020-Jan-25 08:20 070 4 gusting 9 9.4
2020-Jan-25 08:15 104 2 gusting 9 9.4
2020-Jan-25 08:10 045 4 gusting 8 9.4
2020-Jan-25 08:05 074 2 gusting 6 9.4
2020-Jan-25 08:00 068 2 gusting 6 9.4
2020-Jan-25 07:55 062 3 gusting 6 9.4
2020-Jan-25 07:50 012 4 gusting 8 9.4
2020-Jan-25 07:45 057 3 gusting 8 9.4
2020-Jan-25 07:40 041 3 gusting 6 9.4
2020-Jan-25 07:30 058 2 gusting 7 9.4
2020-Jan-25 07:25 030 3 gusting 6 9.4
2020-Jan-25 07:20 063 3 gusting 8 9.4
2020-Jan-25 07:15 007 4 gusting 8 9.4
2020-Jan-25 07:10 053 3 gusting 7 9.4
2020-Jan-25 07:05 041 4 gusting 7 9.4
2020-Jan-25 07:00 082 3 gusting 8 9.4
2020-Jan-25 06:45 034 3 gusting 8 9.4
2020-Jan-25 06:35 056 4 gusting 8 9.4
2020-Jan-25 06:25 065 2 gusting 9 9.4
2020-Jan-25 06:20 078 4 gusting 10 9.4
2020-Jan-25 06:15 050 6 gusting 10 9.4
2020-Jan-25 06:10 048 5 gusting 10 9.4
2020-Jan-25 05:55 353 4 gusting 8 9.4
2020-Jan-25 05:45 028 6 gusting 8 9.4
2020-Jan-25 05:40 053 4 gusting 9 9.4
2020-Jan-25 05:30 053 5 gusting 11 9.4
2020-Jan-25 05:25 038 6 gusting 11 9.4
2020-Jan-25 05:20 039 5 gusting 9 9.4
2020-Jan-25 05:15 028 4 gusting 9 9.4
2020-Jan-25 05:10 043 5 gusting 8 9.4
2020-Jan-25 05:05 028 3 gusting 10 9.4
2020-Jan-25 04:55 037 6 gusting 12 10.0
2020-Jan-25 04:50 038 4 gusting 7 10.0
2020-Jan-25 04:45 016 5 gusting 9 10.0
2020-Jan-25 04:40 026 4 gusting 9 10.0
2020-Jan-25 04:35 040 3 gusting 6 10.0
2020-Jan-25 04:30 047 2 gusting 8 10.0
2020-Jan-25 04:25 068 4 gusting 8 10.0
2020-Jan-25 04:15 072 4 gusting 9 10.0
2020-Jan-25 04:10 064 2 gusting 9 10.0
2020-Jan-25 04:05 043 5 gusting 9 10.0
2020-Jan-25 04:00 039 3 gusting 9 10.0
2020-Jan-25 03:45 059 5 gusting 9 10.0
2020-Jan-25 03:40 066 4 gusting 8 10.0
2020-Jan-25 03:20 043 5 gusting 8 10.0
2020-Jan-25 03:10 076 4 gusting 9 10.0
2020-Jan-25 03:05 052 4 gusting 9 10.0
2020-Jan-25 03:00 041 5 gusting 9 10.0
2020-Jan-25 02:55 066 4 gusting 12 10.0
2020-Jan-25 02:45 035 5 gusting 10 10.0
2020-Jan-25 02:40 070 5 gusting 8 10.0
2020-Jan-25 02:35 047 6 gusting 8 10.0
2020-Jan-25 02:30 037 4 gusting 8 10.0
2020-Jan-25 02:20 053 4 gusting 8 10.0
2020-Jan-25 02:15 025 4 gusting 9 10.0
2020-Jan-25 02:10 055 5 gusting 11 10.0
2020-Jan-25 02:05 038 5 gusting 11 10.0
2020-Jan-25 01:55 049 6 gusting 10 10.0
2020-Jan-25 01:50 059 5 gusting 9 10.0
2020-Jan-25 01:45 053 5 gusting 9 10.0
2020-Jan-25 01:40 038 6 gusting 9 10.0
2020-Jan-25 01:35 090 4 gusting 9 10.0
2020-Jan-25 01:25 040 5 gusting 9 10.0
2020-Jan-25 01:15 041 6 gusting 11 10.0
2020-Jan-25 01:10 063 6 gusting 10 10.6
2020-Jan-25 01:05 054 6 gusting 10 10.6
2020-Jan-25 00:55 058 4 gusting 9 10.6
2020-Jan-25 00:50 041 5 gusting 10 10.6
2020-Jan-25 00:40 060 4 gusting 11 10.6
2020-Jan-25 00:35 069 5 10.6
2020-Jan-25 00:30 030 6 gusting 9 10.6
2020-Jan-25 00:25 058 5 gusting 12 10.6
2020-Jan-25 00:20 039 6 gusting 12 10.6
2020-Jan-25 00:15 043 5 gusting 11 10.6
2020-Jan-25 00:10 059 5 gusting 11 10.6
2020-Jan-25 00:05 068 4 gusting 6 10.6
2020-Jan-25 00:00 020 3 gusting 9 10.6
2020-Jan-24 23:45 092 4 gusting 9 10.6
2020-Jan-24 23:40 078 5 gusting 9 10.6
2020-Jan-24 23:35 057 3 gusting 8 10.6
2020-Jan-24 23:30 152 3 gusting 6 10.6
2020-Jan-24 23:25 359 0 gusting 4 10.6
2020-Jan-24 23:20 077 0 gusting 4 10.6
2020-Jan-24 23:10 012 0 gusting 5 10.0
2020-Jan-24 23:05 070 2 gusting 5 10.0
2020-Jan-24 22:55 028 2 gusting 6 10.0
2020-Jan-24 22:50 057 1 gusting 6 10.0
2020-Jan-24 22:45 024 1 gusting 6 10.0
2020-Jan-24 22:40 038 2 gusting 5 10.0
2020-Jan-24 22:35 035 1 gusting 4 10.0
2020-Jan-24 22:25 051 2 gusting 6 10.0
2020-Jan-24 22:20 060 2 gusting 6 10.6
2020-Jan-24 22:10 036 2 gusting 6 10.6
2020-Jan-24 22:05 049 2 gusting 6 10.6
2020-Jan-24 22:00 068 2 gusting 6 10.6
2020-Jan-24 21:55 049 3 gusting 5 10.6
2020-Jan-24 21:50 024 2 gusting 4 10.6
2020-Jan-24 21:45 027 2 gusting 6 10.6
2020-Jan-24 21:35 041 1 gusting 3 10.6
2020-Jan-24 21:30 030 0 gusting 3 10.6
2020-Jan-24 21:25 028 0 gusting 4 10.6
2020-Jan-24 21:20 028 1 gusting 4 10.6
2020-Jan-24 21:15 016 1 gusting 6 10.6
2020-Jan-24 21:10 037 1 gusting 3 10.6
2020-Jan-24 21:00 064 2 gusting 6 10.6
2020-Jan-24 20:55 014 2 gusting 6 10.6
2020-Jan-24 20:50 055 2 gusting 4 10.6
2020-Jan-24 20:45 011 1 gusting 3 10.6
2020-Jan-24 20:40 028 0 gusting 4 10.6
2020-Jan-24 20:35 029 1 gusting 4 10.0
2020-Jan-24 20:30 046 1 gusting 5 10.0
2020-Jan-24 20:25 069 2 gusting 5 10.0
2020-Jan-24 20:20 039 0 gusting 3 10.0
2020-Jan-24 20:15 284 0 gusting 3 10.0
2020-Jan-24 20:10 053 0 gusting 2 10.6
2020-Jan-24 20:05 053 0 gusting 4 10.6
2020-Jan-24 20:00 158 1 gusting 4 10.6
2020-Jan-24 19:55 045 10.6
2020-Jan-24 19:50 045 0 gusting 3 10.6
2020-Jan-24 19:45 052 1 gusting 3 10.6
2020-Jan-24 19:40 076 0 gusting 6 10.6
2020-Jan-24 19:35 076 0 gusting 6 10.6
2020-Jan-24 19:30 114 1 gusting 4 10.6
2020-Jan-24 19:25 096 10.6
2020-Jan-24 19:20 136 1 gusting 3 10.6
2020-Jan-24 19:10 147 0 gusting 4 10.6
2020-Jan-24 19:05 145 2 gusting 6 10.6
2020-Jan-24 18:55 163 2 gusting 7 10.6
2020-Jan-24 18:50 103 4 gusting 7 10.6
2020-Jan-24 18:35 144 5 gusting 13 10.6
2020-Jan-24 18:30 168 8 gusting 13 10.6
2020-Jan-24 18:25 185 6 gusting 13 11.1
2020-Jan-24 18:15 190 6 gusting 13 11.7
2020-Jan-24 18:10 190 7 gusting 13 12.2
2020-Jan-24 18:00 045 0 gusting 4 12.8
2020-Jan-24 17:45 056 2 gusting 3 12.8
2020-Jan-24 17:40 035 0 gusting 3 12.8
2020-Jan-24 17:35 035 2 gusting 3 12.8
2020-Jan-24 17:30 032 2 gusting 3 12.8
2020-Jan-24 17:25 047 1 gusting 3 12.8
2020-Jan-24 17:20 039 2 gusting 4 12.8
2020-Jan-24 17:15 042 2 gusting 4 12.8
2020-Jan-24 17:10 049 12.8
2020-Jan-24 17:05 049 0 gusting 2 12.8
2020-Jan-24 17:00 048 1 gusting 4 12.8
2020-Jan-24 16:55 105 1 gusting 4 12.8
2020-Jan-24 16:50 087 1 gusting 3 12.8
2020-Jan-24 16:45 087 2 gusting 4 12.8
2020-Jan-24 16:35 107 2 gusting 5 12.8
2020-Jan-24 16:30 096 2 gusting 5 12.8
2020-Jan-24 16:25 097 3 gusting 5 12.8
2020-Jan-24 16:15 094 1 gusting 5 12.8
2020-Jan-24 16:05 195 0 gusting 5 12.8
2020-Jan-24 16:00 125 1 gusting 5 12.8
2020-Jan-24 15:56 230 1 gusting 5 12.8
2020-Jan-24 15:50 139 2 gusting 5 12.8
2020-Jan-24 15:45 323 2 gusting 6 12.8
2020-Jan-24 15:40 139 3 gusting 6 12.8
2020-Jan-24 15:35 146 2 gusting 6 12.8
2020-Jan-24 15:25 135 1 gusting 6 12.8
2020-Jan-24 15:20 096 1 gusting 4 12.8
2020-Jan-24 15:15 185 2 gusting 6 12.8
2020-Jan-24 15:10 143 4 gusting 6 12.8
2020-Jan-24 15:05 137 1 gusting 4 12.8
2020-Jan-24 14:55 156 1 gusting 3 12.2
2020-Jan-24 14:45 093 1 gusting 5 12.2
2020-Jan-24 14:40 124 0 gusting 3 12.2
2020-Jan-24 14:35 086 1 gusting 3 12.2
2020-Jan-24 14:25 104 2 gusting 6 12.2
2020-Jan-24 14:15 106 2 gusting 6 12.2
2020-Jan-24 14:10 091 3 gusting 6 12.2
2020-Jan-24 14:05 063 4 gusting 7 12.2
2020-Jan-24 13:55 080 3 gusting 6 12.2
2020-Jan-24 13:50 035 1 gusting 6 12.2
2020-Jan-24 13:45 049 5 gusting 6 12.2
2020-Jan-24 13:40 130 4 gusting 7 12.2
2020-Jan-24 13:35 053 6 gusting 7 12.2
2020-Jan-24 13:25 100 5 gusting 7 11.7
2020-Jan-24 13:20 114 3 gusting 9 11.7
2020-Jan-24 13:15 086 5 gusting 9 11.7
2020-Jan-24 13:05 099 4 gusting 6 11.7
2020-Jan-24 12:55 108 2 gusting 6 11.7
2020-Jan-24 12:45 091 3 gusting 6 11.7
2020-Jan-24 12:40 066 1 gusting 7 11.1
2020-Jan-24 12:35 080 2 gusting 7 11.1
2020-Jan-24 12:30 082 3 gusting 7 11.1
2020-Jan-24 12:25 096 3 gusting 6 11.1
2020-Jan-24 12:20 093 3 gusting 10 11.1
2020-Jan-24 12:15 091 2 gusting 10 11.1
2020-Jan-24 12:10 064 4 gusting 7 11.1
2020-Jan-24 12:05 122 3 gusting 6 10.6
2020-Jan-24 11:45 148 3 gusting 6 10.6
2020-Jan-24 11:40 331 1 gusting 6 10.6
2020-Jan-24 11:35 116 3 gusting 6 10.6
2020-Jan-24 11:30 222 2 gusting 6 10.6
2020-Jan-24 11:25 181 2 gusting 6 10.6
2020-Jan-24 11:20 130 3 gusting 5 10.0
2020-Jan-24 11:15 075 3 gusting 5 10.0
2020-Jan-24 11:10 185 1 gusting 6 10.0
2020-Jan-24 11:05 088 3 gusting 6 10.0
2020-Jan-24 10:55 033 2 gusting 4 9.4
2020-Jan-24 10:50 163 1 gusting 6 9.4
2020-Jan-24 10:45 078 1 gusting 5 9.4
2020-Jan-24 10:40 155 0 gusting 4 9.4
2020-Jan-24 10:35 288 2 gusting 5 9.4
2020-Jan-24 10:30 252 1 gusting 7 9.4
2020-Jan-24 10:20 262 2 gusting 8 9.4
2020-Jan-24 10:10 114 3 gusting 6 9.4
2020-Jan-24 10:05 325 2 gusting 6 9.4
2020-Jan-24 09:55 041 1 gusting 5 9.4
2020-Jan-24 09:50 359 2 gusting 6 9.4
2020-Jan-24 09:45 128 3 gusting 8 8.9
2020-Jan-24 09:40 032 3 gusting 8 8.9
2020-Jan-24 09:35 040 5 gusting 8 8.9
2020-Jan-24 09:30 040 3 gusting 8 8.9
2020-Jan-24 09:25 317 2 gusting 7 8.9
2020-Jan-24 09:20 039 3 gusting 7 8.9
2020-Jan-24 09:15 007 1 gusting 6 8.9
2020-Jan-24 09:10 014 1 gusting 6 8.9
2020-Jan-24 09:00 128 1 gusting 5 8.9
2020-Jan-24 08:55 001 2 gusting 8 8.9
2020-Jan-24 08:50 232 3 gusting 8 9.4
2020-Jan-24 08:45 001 2 gusting 5 9.4
2020-Jan-24 08:40 053 2 gusting 6 9.4
2020-Jan-24 08:35 069 3 gusting 7 9.4
2020-Jan-24 08:30 081 1 gusting 7 9.4
2020-Jan-24 08:25 111 3 gusting 6 9.4
2020-Jan-24 08:15 086 0 gusting 4 9.4
2020-Jan-24 08:10 106 1 gusting 4 9.4
2020-Jan-24 08:05 084 1 gusting 6 9.4
2020-Jan-24 08:00 111 3 gusting 9 9.4
2020-Jan-24 07:55 129 3 gusting 9 9.4
2020-Jan-24 07:50 195 3 gusting 7 9.4
2020-Jan-24 07:45 142 3 gusting 7 9.4
2020-Jan-24 07:40 126 2 gusting 5 9.4
2020-Jan-24 07:35 099 2 gusting 5 9.4
2020-Jan-24 07:30 135 2 gusting 6 9.4
2020-Jan-24 07:20 068 4 gusting 7 9.4
2020-Jan-24 07:15 161 4 gusting 7 9.4
2020-Jan-24 07:05 111 2 gusting 5 8.9